[[{"header":{"parameterUnit":"m.s-1","parameterCategory":1,"la1":30.2991,"la2":30.254,"lo1":-89.0895,"lo2":-89.0444,"dy":0.0017,"dx":0.0017,"nx":28,"ny":28,"refTime":"2024-07-07T03:00:00:Z","depth":0,"parameterNumber":2,"parameterNumberName":"U-component_of_WINDS"},"data":[0,0,0,0,0,0,0,0,0,0,0,0,0,0,0,0,0,0,0,0,0,0,0,0,0,0,0,0,0,0,0,0,0,0,0,0,0,0,0,0,0,0,0,0,0,0,0,0,0,0,0,0,0,0,0,0,0,0,-2.3473,-2.3472,0,-2.3368,-2.3366,-2.3365,-2.3262,-2.3261,-2.326,-2.3258,-2.3147,-2.3145,-2.3144,0,0,0,0,0,0,0,0,0,0,0,0,0,-2.3585,-2.3584,-2.3474,-2.3472,-2.3471,-2.3368,-2.3366,-2.3365,-2.3263,-2.3261,-2.3259,-2.3258,-2.3148,-2.3145,-2.3143,0,0,0,0,0,0,0,0,0,0,0,0,0,-2.3514,-2.3583,-2.3474,-2.3408,-2.3401,-2.3368,-2.3366,-2.3365,-2.3263,-2.3261,-2.3259,-2.3257,-2.3148,-2.3146,-2.3143,-2.3167,0,0,-2.3135,-2.3134,0,0,0,0,0,0,0,0,-2.3518,-2.351,-2.3419,-2.3412,-2.3404,-2.3326,-2.3365,-2.3298,-2.3263,-2.3315,-2.3258,-2.3256,-2.3208,-2.32,-2.3185,-2.3161,-2.3157,-2.3135,-2.3133,-2.3132,-2.3131,0,0,0,0,0,0,0,-2.3523,-2.3514,-2.3431,-2.3417,-2.3409,-2.3382,-2.337,-2.3352,-2.3274,-2.331,-2.3303,-2.3292,-2.3204,-2.3188,-2.3181,-2.3155,-2.3135,-2.3133,-2.3131,-2.313,-2.3146,-2.3148,0,0,0,0,0,0,-2.3538,-2.3519,-2.3435,-2.3428,-2.3457,-2.3382,-2.3368,-2.3353,-2.3274,-2.326,-2.3294,-2.3287,-2.3193,-2.3185,-2.3177,-2.3199,-2.3132,-2.313,-2.3128,-2.3144,-2.3147,-2.3149,0,0,0,0,0,0,-2.3541,-2.3532,-2.3439,-2.3471,-2.3458,-2.3382,-2.3366,-2.3352,-2.3336,-2.3261,-2.3246,-2.3292,-2.3191,-2.3181,-2.317,-2.3194,-2.3129,-2.3126,-2.3142,-2.3145,-2.3148,-2.3244,0,0,0,0,0,0,-2.3545,-2.3534,-2.3542,-2.3472,-2.3456,-2.3435,-2.3368,-2.3352,-2.3332,-2.3323,-2.3255,-2.3242,-2.3189,-2.3175,-2.3168,-2.3189,-2.3124,-2.3139,-2.3143,-2.3147,-2.3238,-2.325,-2.326,0,0,0,0,0,-2.3549,-2.3573,-2.3543,-2.3533,-2.3465,-2.3437,-2.3427,-2.3366,-2.3334,-2.3342,-2.3294,-2.3244,-2.3193,-2.3175,-2.3166,-2.3187,-2.3138,-2.3142,-2.3147,-2.3234,-2.3248,-2.326,0,0,0,0,0,0,-2.3645,-2.3562,-2.3528,-2.353,-2.3492,-2.3419,-2.3427,-2.3383,-2.3352,-2.3344,-2.3269,-2.3255,-2.3253,-2.3219,-2.32,-2.3206,-2.3158,-2.3161,-2.3228,-2.324,-2.3251,-2.3258,-2.3122,0,0,0,0,0,-2.3667,-2.3652,-2.3579,-2.3588,-2.357,-2.3503,-2.3488,-2.3444,-2.3401,-2.3383,-2.3334,-2.3293,-2.3268,-2.3253,-2.3225,-2.3234,-2.3217,-2.3244,-2.3255,-2.3264,-2.3267,-2.3269,-2.328,-2.3164,-2.3164,-2.3163,0,0,-2.3711,-2.3664,-2.3658,-2.3606,-2.3571,-2.3556,-2.3489,-2.3476,-2.3463,-2.3381,-2.3368,-2.3332,-2.3281,-2.328,-2.3277,-2.3252,-2.3296,-2.327,-2.3278,-2.3275,-2.3275,-2.3286,-2.3296,-2.3167,-2.3166,-2.3166,0,0,-2.3783,-2.3746,-2.3749,-2.3716,-2.3665,-2.362,-2.3621,-2.3556,-2.3528,-2.3515,-2.3453,-2.3437,-2.3395,-2.3362,-2.3339,-2.3402,-2.3354,-2.3395,-2.345,-2.3453,-2.3462,-2.347,-2.3491,-2.35,-2.3398,-2.3398,-2.3399,0,-2.3844,-2.3819,-2.3756,-2.3747,-2.3726,-2.3652,-2.3655,-2.3625,-2.3567,-2.3554,-2.3526,-2.3473,-2.3433,-2.3424,-2.344,-2.3424,-2.3422,-2.3401,-2.3466,-2.3473,-2.348,-2.3499,-2.3508,-2.3404,-2.3403,-2.3402,-2.3402,0,-2.3896,-2.388,-2.3889,-2.3836,-2.3816,-2.3813,-2.3749,-2.3736,-2.3696,-2.3654,-2.3641,-2.3592,-2.3553,-2.3548,-2.3508,-2.3534,-2.3519,-2.3481,-2.3431,-2.3497,-2.3514,-2.3521,-2.3411,-2.3409,-2.3408,-2.3406,0,0,-2.4023,-2.3938,-2.3942,-2.3917,-2.3856,-2.3842,-2.3836,-2.3799,-2.379,-2.3753,-2.3745,-2.3712,-2.3677,-2.3651,-2.3606,-2.361,-2.3662,-2.357,-2.3567,-2.3588,-2.3687,-2.3716,-2.3725,-2.3631,-2.3632,-2.3633,-2.3691,0,-2.4084,-2.4069,-2.4013,-2.4014,-2.3999,-2.393,-2.3924,-2.3886,-2.3848,-2.3828,-2.3785,-2.3763,-2.3717,-2.3702,-2.3702,-2.3656,-2.368,-2.3651,-2.3622,-2.3622,-2.3635,-2.3734,-2.3764,-2.3821,-2.3697,-2.3698,-2.3699,0,-2.4152,-2.4121,-2.4122,-2.4062,-2.4053,-2.4049,-2.4012,-2.3995,-2.395,-2.3922,-2.3895,-2.3846,-2.3835,-2.3791,-2.3775,-2.3756,-2.3742,-2.3717,-2.3718,-2.3711,-2.3663,-2.3729,-2.3837,-2.3845,-2.3709,-2.3708,-2.3708,0,-2.4244,-2.4203,-2.4197,-2.4179,-2.4109,-2.4108,-2.4079,-2.4032,-2.4015,-2.3982,-2.397,-2.3936,-2.3918,-2.3893,-2.3836,-2.3809,-2.3826,-2.3777,-2.3801,-2.3803,-2.3806,-2.3806,-2.3912,-2.38,-2.38,-2.3799,-2.3799,0,-2.4317,-2.4319,-2.4238,-2.4234,-2.4235,-2.4172,-2.4174,-2.4138,-2.4098,-2.4086,-2.4025,-2.4015,-2.3942,-2.3923,-2.3879,-2.3872,-2.3864,-2.384,-2.3828,-2.3845,-2.3848,-2.3833,-2.3827,-2.3802,-2.3801,-2.3801,-2.38,0,-2.4418,-2.4364,-2.4354,-2.429,-2.4274,-2.4277,-2.4222,-2.4216,-2.4175,-2.4161,-2.4154,-2.4089,-2.4064,-2.4006,-2.3965,-2.3935,-2.394,-2.3918,-2.3955,-2.3947,-2.3974,-2.3972,-2.4072,-2.4082,-2.3966,-2.3967,-2.3968,0,-2.4467,-2.4468,-2.4405,-2.4393,-2.4367,-2.4349,-2.4331,-2.4269,-2.4252,-2.4203,-2.4203,-2.4174,-2.4147,-2.4111,-2.4059,-2.4028,-2.4005,-2.4043,-2.4,-2.4017,-2.4004,-2.4005,-2.4004,-2.4051,-2.4053,-2.4054,-2.4055,0,-2.456,-2.4534,-2.4511,-2.4479,-2.446,-2.4431,-2.4399,-2.4393,-2.4323,-2.4308,-2.4283,-2.4262,-2.4222,-2.4194,-2.4155,-2.4124,-2.4078,-2.407,-2.4073,-2.409,-2.4111,-2.4099,-2.3979,-2.4067,-2.4066,-2.4065,-2.4064,-2.4064,-2.4636,-2.4634,-2.4589,-2.4566,-2.4536,-2.4508,-2.45,-2.4458,-2.4436,-2.4399,-2.4364,-2.4343,-2.4299,-2.4243,-2.4215,-2.4197,-2.4174,-2.4179,-2.418,-2.4182,-2.419,-2.4115,-2.419,-2.419,-2.4189,-2.4189,-2.4189,0,-2.4725,-2.4694,-2.4673,-2.4631,-2.4613,-2.4573,-2.4536,-2.4523,-2.4506,-2.447,-2.4445,-2.4417,-2.439,-2.4337,-2.4305,-2.4301,-2.4279,-2.4294,-2.4293,-2.4287,-2.4213,-2.4212,-2.4313,-2.4313,-2.4313,-2.4313,-2.4313,-2.4313,-2.4769,-2.4763,-2.4732,-2.471,-2.4678,-2.4658,-2.464,-2.4614,-2.4585,-2.4556,-2.4534,-2.4501,-2.4458,-2.4423,-2.4396,-2.4381,-2.4372,-2.4394,-2.4372,-2.4304,-2.4292,-2.4281,-2.428,-2.4393,-2.4393,-2.4447,-2.4448,-2.4448]},{"header":{"parameterUnit":"m.s-1","parameterCategory":1,"la1":30.2991,"la2":30.254,"lo1":-89.0895,"lo2":-89.0444,"dy":0.0017,"dx":0.0017,"nx":28,"ny":28,"refTime":"2024-07-07T03:00:00:Z","depth":0,"parameterNumber":3,"parameterNumberName":"V-component_of_WINDS"},"data":[0,0,0,0,0,0,0,0,0,0,0,0,0,0,0,0,0,0,0,0,0,0,0,0,0,0,0,0,0,0,0,0,0,0,0,0,0,0,0,0,0,0,0,0,0,0,0,0,0,0,0,0,0,0,0,0,0,0,3.4763,3.4763,0,3.4746,3.4745,3.4745,3.4755,3.4755,3.4755,3.4756,3.4733,3.4732,3.4731,0,0,0,0,0,0,0,0,0,0,0,0,0,3.4802,3.4801,3.4763,3.4763,3.4763,3.4746,3.4745,3.4745,3.4754,3.4755,3.4756,3.4756,3.4734,3.4732,3.4731,0,0,0,0,0,0,0,0,0,0,0,0,0,3.4785,3.4801,3.4763,3.4765,3.4766,3.4746,3.4745,3.4745,3.4754,3.4755,3.4756,3.4756,3.4734,3.4733,3.4731,3.4707,0,0,3.4726,3.4726,0,0,0,0,0,0,0,0,3.4786,3.4783,3.4765,3.4765,3.4765,3.4753,3.4751,3.4732,3.4754,3.4758,3.4756,3.4757,3.4739,3.4737,3.4732,3.4705,3.4705,3.4726,3.4725,3.4724,3.4724,0,0,0,0,0,0,0,3.4787,3.4784,3.4756,3.4765,3.4765,3.4766,3.4765,3.4747,3.4745,3.4758,3.4759,3.4757,3.4739,3.4734,3.4732,3.4704,3.4726,3.4725,3.4724,3.4723,3.4659,3.4658,0,0,0,0,0,0,3.4789,3.4785,3.4757,3.4756,3.4778,3.4765,3.4763,3.4756,3.4745,3.4744,3.4756,3.4757,3.4736,3.4733,3.4731,3.4703,3.4724,3.4723,3.4722,3.466,3.4659,3.4658,0,0,0,0,0,0,3.4789,3.4786,3.4757,3.4771,3.4767,3.4764,3.4756,3.4755,3.475,3.4744,3.4743,3.4751,3.4736,3.4733,3.4713,3.4702,3.4722,3.4721,3.4661,3.4659,3.4658,3.4646,0,0,0,0,0,0,3.479,3.4786,3.4777,3.477,3.4766,3.4741,3.4755,3.4755,3.4748,3.4749,3.4739,3.4738,3.4737,3.4716,3.4712,3.47,3.472,3.4662,3.466,3.4659,3.4648,3.4645,3.4642,0,0,0,0,0,3.4792,3.4773,3.4777,3.4773,3.4755,3.474,3.4738,3.4738,3.4747,3.4738,3.4734,3.4738,3.4704,3.4714,3.4709,3.4697,3.4662,3.466,3.4659,3.4649,3.4645,3.4642,0,0,0,0,0,0,3.4776,3.4772,3.4776,3.4755,3.4748,3.4742,3.473,3.4734,3.4724,3.4725,3.4725,3.4723,3.4703,3.4698,3.4709,3.4674,3.4684,3.4682,3.4678,3.4675,3.4672,3.4674,3.4718,0,0,0,0,0,3.4771,3.476,3.4756,3.4738,3.4735,3.4733,3.4726,3.4728,3.472,3.4717,3.4712,3.4703,3.4691,3.4682,3.4671,3.4647,3.4645,3.4637,3.4634,3.4632,3.463,3.4619,3.4615,3.4652,3.4652,3.4652,0,0,3.4759,3.4755,3.4748,3.4735,3.473,3.4718,3.473,3.4717,3.4708,3.4714,3.4696,3.4692,3.4683,3.4662,3.4652,3.4657,3.462,3.463,3.4628,3.4627,3.4617,3.4613,3.461,3.4651,3.4651,3.4652,0,0,3.4731,3.4727,3.4712,3.4708,3.4701,3.47,3.4697,3.469,3.4689,3.4671,3.4676,3.4665,3.4643,3.4637,3.4631,3.4604,3.4607,3.46,3.4586,3.4575,3.4573,3.457,3.4561,3.4558,3.4597,3.4597,3.4597,0,3.4716,3.47,3.4703,3.4691,3.4685,3.4693,3.4678,3.4672,3.4661,3.4657,3.4663,3.4638,3.4632,3.461,3.4604,3.4598,3.4595,3.4601,3.4573,3.457,3.4568,3.456,3.4556,3.4597,3.4597,3.4597,3.4597,0,3.4683,3.4672,3.466,3.4652,3.4646,3.4631,3.4632,3.4625,3.4627,3.4626,3.4609,3.4602,3.459,3.4585,3.4586,3.4564,3.4568,3.4573,3.4584,3.4564,3.4556,3.4553,3.4595,3.4596,3.4596,3.4596,0,0,3.4643,3.464,3.4635,3.4633,3.4627,3.4618,3.4604,3.4595,3.4589,3.4581,3.457,3.4553,3.4559,3.4552,3.4553,3.4544,3.4524,3.4551,3.455,3.4547,3.4501,3.4498,3.4494,3.4527,3.4526,3.4526,3.4503,0,3.4616,3.4595,3.4599,3.4577,3.4568,3.4576,3.4564,3.4559,3.4558,3.4549,3.4547,3.4536,3.4544,3.454,3.4531,3.4529,3.4515,3.453,3.4517,3.4516,3.452,3.449,3.4485,3.4463,3.4499,3.4499,3.4498,0,3.4581,3.4575,3.4554,3.4552,3.4548,3.4538,3.453,3.4522,3.4516,3.4516,3.451,3.4513,3.45,3.4511,3.4493,3.4503,3.4498,3.4496,3.4495,3.4494,3.4506,3.4489,3.4456,3.4453,3.4493,3.4494,3.4494,0,3.4556,3.4543,3.4529,3.4526,3.4523,3.4516,3.4514,3.4509,3.4504,3.4497,3.4494,3.4484,3.4479,3.4472,3.4473,3.4481,3.4455,3.4466,3.4455,3.4455,3.4449,3.4449,3.4416,3.4444,3.4444,3.4444,3.4445,0,3.4526,3.4513,3.4518,3.4509,3.4495,3.45,3.4485,3.4484,3.448,3.4471,3.4477,3.4468,3.447,3.4461,3.4461,3.4447,3.4444,3.4444,3.4444,3.4444,3.4444,3.444,3.4442,3.4444,3.4444,3.4444,3.4444,0,3.4495,3.4498,3.4484,3.4483,3.4483,3.4472,3.4471,3.4463,3.4464,3.4452,3.445,3.445,3.444,3.4441,3.4429,3.4429,3.4412,3.4414,3.4414,3.4415,3.4405,3.4406,3.4368,3.4364,3.4394,3.4394,3.4394,0,3.4476,3.4466,3.4466,3.4461,3.446,3.4452,3.4447,3.4451,3.4446,3.4441,3.4433,3.4425,3.4418,3.4402,3.44,3.4392,3.4394,3.4381,3.4392,3.4393,3.4395,3.4396,3.4395,3.4379,3.4379,3.4378,3.4378,0,3.4441,3.4444,3.4438,3.4433,3.4429,3.4424,3.442,3.4416,3.442,3.4414,3.4405,3.44,3.439,3.4381,3.4374,3.4371,3.4375,3.4375,3.4372,3.4372,3.4373,3.4373,3.4409,3.4376,3.4376,3.4376,3.4376,3.4376,3.4417,3.4409,3.4409,3.4402,3.4401,3.4397,3.4391,3.4391,3.4385,3.4378,3.438,3.4371,3.4367,3.4358,3.4355,3.4347,3.4351,3.4347,3.4346,3.4345,3.4344,3.4374,3.4345,3.4345,3.4345,3.4346,3.4346,0,3.4384,3.4384,3.4378,3.4374,3.437,3.4376,3.4373,3.4368,3.436,3.4357,3.4352,3.4343,3.4335,3.4334,3.4327,3.4321,3.4323,3.4319,3.4319,3.4319,3.434,3.4344,3.4317,3.4317,3.4317,3.4317,3.4317,3.4317,3.4366,3.4355,3.4358,3.4346,3.4346,3.4339,3.4336,3.4334,3.4332,3.4322,3.4317,3.4317,3.4315,3.4308,3.4301,3.4301,3.4298,3.4294,3.4294,3.4314,3.4317,3.432,3.4323,3.4293,3.4293,3.4274,3.4274,3.4274]}]]